Location: Unspecified
(0.0000°N, 0.0000°E)
Time: 13:40:10
(UTC+00:00)

Amsat-Oscar-6 - Pass Details

Date: 18 June 2019
Orbit: 1448 x 1454 km, 101.8° (Epoch: 20 July)

Event Time Altitude Azimuth Distance (km) Brightness Sun altitude
Rises 03:35:47 0° 8° (N) 4,541 ? -32.9°
Reaches altitude 10° 03:38:35 10° 6° (N) 3,565 ? -32.3°
Maximum altitude 03:46:46 64° 286° (WNW) 1,590 ? -30.5°
Enters shadow 03:47:26 62° 264° (W) 1,611 ? -30.3°
